Weather History for KAVL - July, 2013

Change the Weather History Date:

Friday, July 5, 2013

  Actual Average Record
Temperature  
Mean Temperature 74 °F 74 °F  
Max Temperature 81 °F 84 °F 96 °F (1948)
Min Temperature 67 °F 63 °F 46 °F (1967)
Degree Days  
Heating Degree Days 0 0  
Month to date heating degree days 0 0  
Since 1 June heating degree days 0 14  
Since 1 July heating degree days 0 0  
Cooling Degree Days 9 9  
Month to date cooling degree days 33 41  
Year to date cooling degree days 286 276  
Since 1 June cooling degree days 235 218  
Growing Degree Days 24 (Base 50)    
Moisture  
Dew Point 66 °F    
Average Humidity 76    
Maximum Humidity 93    
Minimum Humidity 58    
Precipitation  
Precipitation 0.36 in 0.14 in 1.95 in (1941)
Month to date precipitation 7.12 0.72  
Year to date precipitation 45.21 23.62  
Snow  
Snow 0.00 in 0.00 in 0.00 in ()
Month to date snowfall 0.0 0.0  
Since 1 June snowfall 0.0 0.0  
Since 1 July snowfall 0.0 0.0  
Snow Depth 0.00 in    
Sea Level Pressure  
Sea Level Pressure 30.24 in    
Wind  
Wind Speed 5 mph (SSE)    
Max Wind Speed 15 mph    
Max Gust Speed 23 mph    
Visibility 9 miles    
Events Rain , Thunderstorm    
T = Trace of Precipitation, MM = Missing Value Source: NWS Daily Summary

Daily Weather History Graph

Daily Weather History Graph

Search for Another Location

Airport or City:

Trip Planner

Search our weather history database for the weather conditions in past years. The results will help you decide how hot, cold, wet, or windy it might be!

Date:

Astronomy

Jul. 05, 2013 Rise Set
Actual Time 6:20 AM EDT 8:48 PM EDT
Civil Twilight 5:51 AM EDT 9:18 PM EDT
Nautical Twilight 5:14 AM EDT 9:54 PM EDT
Astronomical Twilight 4:33 AM EDT 10:35 PM EDT
Moon 4:17 AM EDT (7/5) 6:44 PM EDT (7/5)
Length of Visible Light 15h 27m
Length of Day
14h 28m
Waning Crescent, 6% of the Moon is Illuminated
Jul 5
Waning Crescent
Jul 8
New
Jul 15
First Quarter
Jul 22
Full
Jul 29
Last Quarter

Hourly Weather History & Observations

Time (EDT) Temp. Heat Index Dew Point Humidity Pressure Visibility Wind Dir Wind Speed Gust Speed Precip Events Conditions
12:54 AM 68.0 °F - 66.0 °F 93% 30.19 in 10.0 mi SE 8.1 mph - 0.00 in   Overcast
1:54 AM 68.0 °F - 64.9 °F 90% 30.19 in 10.0 mi SSE 5.8 mph - 0.00 in   Overcast
2:54 AM 68.0 °F - 66.0 °F 93% 30.18 in 10.0 mi Variable 6.9 mph - 0.00 in Rain Light Rain
3:01 AM 68.0 °F - 66.2 °F 94% 30.24 in 10.0 mi SE 4.6 mph - 0.00 in Rain Light Rain
3:15 AM 68.0 °F - 66.2 °F 94% 30.24 in 10.0 mi SE 4.6 mph - 0.00 in   Overcast
3:54 AM 66.9 °F - 66.0 °F 97% 30.19 in 10.0 mi SE 4.6 mph - 0.00 in   Overcast
4:54 AM 68.0 °F - 66.0 °F 93% 30.17 in 10.0 mi SE 3.5 mph - N/A   Overcast
5:54 AM 66.9 °F - 64.9 °F 93% 30.19 in 10.0 mi Calm Calm - N/A   Mostly Cloudy
6:17 AM 66.2 °F - 66.2 °F 100% 30.26 in 10.0 mi South 4.6 mph - 0.00 in Rain Light Rain
6:24 AM 66.2 °F - 66.2 °F 100% 30.26 in 10.0 mi SSE 4.6 mph - 0.00 in Rain Light Rain
6:29 AM 66.2 °F - 64.4 °F 94% 30.26 in 10.0 mi SSE 4.6 mph - 0.00 in   Overcast
6:54 AM 66.9 °F - 64.9 °F 93% 30.19 in 10.0 mi SSE 5.8 mph - 0.00 in   Mostly Cloudy
7:54 AM 66.9 °F - 64.9 °F 93% 30.23 in 8.0 mi SSE 5.8 mph - 0.00 in Rain Light Rain
8:54 AM 68.0 °F - 66.0 °F 93% 30.24 in 9.0 mi Variable 3.5 mph - 0.00 in   Overcast
9:04 AM 68.0 °F - 66.2 °F 94% 30.30 in 10.0 mi SSE 4.6 mph - N/A   Mostly Cloudy
9:16 AM 68.0 °F - 66.2 °F 94% 30.30 in 10.0 mi South 4.6 mph - N/A   Mostly Cloudy
9:28 AM 68.0 °F - 66.2 °F 94% 30.30 in 10.0 mi SSE 3.5 mph - N/A   Scattered Clouds
9:39 AM 69.8 °F - 66.2 °F 88% 30.30 in 10.0 mi South 3.5 mph - N/A   Scattered Clouds
9:54 AM 69.1 °F - 66.0 °F 90% 30.24 in 10.0 mi Variable 3.5 mph - N/A   Mostly Cloudy
10:21 AM 71.6 °F - 66.2 °F 83% 30.30 in 10.0 mi SSE 3.5 mph - N/A   Mostly Cloudy
10:39 AM 71.6 °F - 64.4 °F 78% 30.31 in 10.0 mi SSE 4.6 mph - N/A   Scattered Clouds
10:54 AM 72.0 °F - 64.9 °F 78% 30.24 in 10.0 mi SSE 6.9 mph - N/A   Clear
11:54 AM 73.0 °F - 64.0 °F 73% 30.25 in 10.0 mi SSW 6.9 mph - N/A   Overcast
12:54 PM 75.0 °F - 66.9 °F 76% 30.23 in 10.0 mi SSE 6.9 mph - N/A   Scattered Clouds
1:54 PM 77.0 °F - 64.9 °F 66% 30.22 in 10.0 mi South 9.2 mph - N/A   Scattered Clouds
2:54 PM 79.0 °F - 66.0 °F 64% 30.20 in 10.0 mi SSW 5.8 mph - N/A   Scattered Clouds
3:54 PM 79.0 °F - 64.9 °F 62% 30.19 in 10.0 mi SSE 8.1 mph - N/A   Partly Cloudy
4:54 PM 80.1 °F 81.9 °F 64.9 °F 60% 30.18 in 10.0 mi South 8.1 mph - N/A   Partly Cloudy
5:52 PM 75.2 °F - 66.2 °F 73% 30.26 in 1.5 mi SW 6.9 mph 19.6 mph 0.03 in Rain Heavy Rain
5:54 PM 73.0 °F - 66.0 °F 79% 30.19 in 1.5 mi WSW 5.8 mph 19.6 mph 0.10 in Rain Heavy Rain
6:01 PM 71.6 °F - 66.2 °F 83% 30.27 in 3.0 mi SE 12.7 mph 20.7 mph 0.05 in Rain Heavy Rain
6:10 PM 69.8 °F - 64.4 °F 83% 30.28 in 2.5 mi SE 12.7 mph 23.0 mph 0.06 in Rain , Thunderstorm Light Thunderstorms and Rain
6:51 PM 68.0 °F - 66.2 °F 94% 30.28 in 10.0 mi South 4.6 mph - 0.14 in Rain Light Rain
6:54 PM 68.0 °F - 66.0 °F 93% 30.22 in 10.0 mi SSE 3.5 mph - 0.14 in Rain Light Rain
7:54 PM 69.1 °F - 66.9 °F 93% 30.22 in 10.0 mi SSE 5.8 mph - 0.00 in   Mostly Cloudy
8:02 PM 69.8 °F - 66.2 °F 88% 30.29 in 10.0 mi South 4.6 mph - N/A   Overcast
8:54 PM 69.1 °F - 66.9 °F 93% 30.22 in 10.0 mi Calm Calm - N/A   Scattered Clouds
9:22 PM 69.8 °F - 66.2 °F 88% 30.28 in 10.0 mi Calm Calm - N/A   Mostly Cloudy
9:54 PM 68.0 °F - 66.9 °F 96% 30.22 in 10.0 mi Calm Calm - N/A   Mostly Cloudy
10:10 PM 68.0 °F - 66.2 °F 94% 30.29 in 10.0 mi Calm Calm - N/A   Mostly Cloudy
10:54 PM 69.1 °F - 66.9 °F 93% 30.22 in 10.0 mi Calm Calm - N/A   Overcast
11:31 PM 69.8 °F - 68.0 °F 94% 30.29 in 10.0 mi SSE 3.5 mph - N/A   Overcast
11:49 PM 69.8 °F - 68.0 °F 94% 30.28 in 10.0 mi Calm Calm - N/A   Overcast
11:54 PM 69.1 °F - 66.9 °F 93% 30.21 in 10.0 mi SSE 3.5 mph - N/A   Overcast